Location: Ostrava
(49.8330°N, 18.2830°E)
Time: 14:16:37
(UTC+02:00)

Iridium 39 - Visible Passes

Search period start: 03 July 2015 00:00
Search period end: 13 July 2015 00:00
Orbit: 776 x 779 km, 86.4° (Epoch: 02 July)

Date Brightness Start Highest point End Pass type
(mag) Time Alt. Az. Time Alt. Az. Time Alt. Az.
03 Jul 8.0 02:31:07 10° SE 02:35:13 25° E 02:39:26 10° NNE visible
04 Jul 8.5 01:59:15 10° ESE 02:02:00 15° ENE 02:04:57 10° NE visible
04 Jul 6.1 03:36:51 10° S 03:42:05 86° W 03:47:20 10° N visible
05 Jul 6.6 03:03:30 10° SSE 03:08:35 56° E 03:13:42 10° NNE visible
06 Jul 7.5 02:30:36 10° SE 02:35:11 33° E 02:39:52 10° NNE visible
07 Jul 8.2 01:58:14 10° ESE 02:01:54 20° ENE 02:05:43 10° NNE visible
07 Jul 6.2 03:37:02 10° SSW 03:42:12 63° W 03:47:25 10° N visible
08 Jul 8.6 01:26:55 10° E 01:28:43 12° ENE 01:30:47 10° NE visible
08 Jul 6.2 03:03:32 10° S 03:08:38 78° E 03:13:53 10° N visible
09 Jul 6.9 02:30:19 10° SSE 02:35:11 45° E 02:40:11 10° NNE visible
10 Jul 7.7 01:57:34 10° SE 02:01:51 27° E 02:06:15 10° NNE visible
10 Jul 6.5 03:37:35 11° SSW 03:42:23 46° W 03:47:25 10° N visible
11 Jul 8.3 01:25:30 10° ESE 01:28:36 17° ENE 01:31:54 10° NE visible
11 Jul 6.0 03:04:21 15° S 03:08:45 78° W 03:14:00 10° N visible
12 Jul 6.4 02:31:06 16° SSE 02:35:13 63° E 02:40:25 10° N visible
